This is the latest recevied weather packets stored in our database for station/object N4TLC. If no packets are shown the sender has not sent any weather packets the latest 10 day(s).
| Time | Temp. | Humidity | Pressure | Rain* | Wind** | Luminosity | Snow |
|---|---|---|---|---|---|---|---|
| 1777046936 | 28.33° C | 31% | 1013.7 hPa | 0 mm | - | 900 W/m² | - |
| 1777046633 | 28.33° C | 29% | 1014 hPa | 0 mm | - | 895 W/m² | - |
| 1777046328 | 27.78° C | 32% | 1014 hPa | 0 mm | - | 885 W/m² | - |
| 1777046023 | 28.33° C | 31% | 1014 hPa | 0 mm | - | 876 W/m² | - |
| 1777045720 | 28.33° C | 33% | 1014.3 hPa | 0 mm | - | 870 W/m² | - |
| 1777045417 | 27.78° C | 31% | 1014.2 hPa | 0 mm | - | 860 W/m² | - |
| 1777045112 | 27.22° C | 32% | 1014.1 hPa | 0 mm | - | 852 W/m² | - |
| 1777044808 | 26.67° C | 33% | 1014.2 hPa | 0 mm | - | 716 W/m² | - |
| 1777044504 | 26.11° C | 35% | 1014.2 hPa | 0 mm | - | 108 W/m² | - |
| 1777044201 | 26.11° C | 33% | 1014.4 hPa | 0 mm | - | 94 W/m² | - |
| 1777043897 | 25.56° C | 35% | 1014.6 hPa | 0 mm | - | 99 W/m² | - |
| 1777043594 | 25.56° C | 37% | 1014.6 hPa | 0 mm | - | 90 W/m² | - |
| 1777043290 | 26.11° C | 35% | 1014.6 hPa | 0 mm | - | 90 W/m² | - |
| 1777042985 | 25.56° C | 36% | 1014.7 hPa | 0 mm | - | 89 W/m² | - |
| 1777042681 | 25° C | 37% | 1014.7 hPa | 0 mm | - | 87 W/m² | - |
| 1777042376 | 25° C | 38% | 1014.4 hPa | 0 mm | - | 85 W/m² | - |
| 1777042072 | 25° C | 37% | 1014.6 hPa | 0 mm | - | 83 W/m² | - |
| 1777041769 | 25° C | 38% | 1014.6 hPa | 0 mm | - | 81 W/m² | - |
| 1777041465 | 25° C | 41% | 1014.4 hPa | 0 mm | - | 80 W/m² | - |
| 1777041162 | 24.44° C | 40% | 1014.8 hPa | 0 mm | - | 80 W/m² | - |
| 1777040859 | 23.89° C | 40% | 1014.7 hPa | 0 mm | - | 78 W/m² | - |
| 1777040553 | 23.89° C | 41% | 1014.8 hPa | 0 mm | - | 76 W/m² | - |
| 1777040248 | 23.89° C | 41% | 1014.6 hPa | 0 mm | - | 75 W/m² | - |
| 1777039943 | 23.33° C | 42% | 1014.8 hPa | 0 mm | - | 73 W/m² | - |
| 1777039640 | 23.33° C | 44% | 1014.9 hPa | 0 mm | - | 72 W/m² | - |
* Rain latest hour (hover to see other rain measurements)
** Current wind speed in m/s (hover to see current wind gust speed)